Lid_Strength_Index
6 6 7 7 8 8 8 8 8 8 7 7 7 7 7 6 6 6 7 7 7 6
8 9 9 9 9 10 9 9 9 9 9 9 9 9 8 9 9 9 9 9 8 8
9 10 10 10 10 10 10 10 10 10 10 10 10 10 10 11 10 11 11 10 10 9
10 11 11 11 11 11 11 11 11 11 11 11 11 12 12 12 12 12 12 11 11 11
11 12 12 12 12 12 12 12 12 12 12 12 13 13 13 13 13 13 13 12 12 12
13 13 13 13 13 13 13 13 13 13 13 14 13 13 13 13 13 13 13 13 13 12
14 14 14 14 13 13 13 14 14 14 15 14 14 14 14 14 14 14 13 13 13 13
14 14 14 14 14 14 15 15 15 15 15 15 15 14 14 14 14 15 14 14 14 13
15 15 15 15 15 15 16 16 16 16 16 16 15 13 12 12 13 13 15 15 13 13
15 15 15 16 16 16 16 16 16 16 16 16 16 13 12 12 13 14 14 14 14 13
15 16 16 17 17 17 16 16 16 17 17 17 16 12 12 12 13 14 13 13 13 12
16 18 18 19 19 17 18 18 19 17 19 18 17 12 11 12 13 13 13 12 12 11
17 19 20 19 19 18 20 17 17 17 19 18 17 13 12 12 13 13 12 12 11 10
18 20 19 20 19 20 22 20 24 20 19 19 17 16 12 11 12 12 12 11 11 11